Terminal Aerodrome Forecast
Issued by NWS Twin Cities, MN

Home | Current Version | Previous Version | Graphics & Text | Print | Product List | Glossary On
Versions: 1 2 3 4 5 6 7 8 9 10 11 12 13 14 15 16 17 18 19 20 21 22 23 24 25 26 27
997
FTUS43 KMPX 210246 AAA
TAFMSP
TAF AMD
KMSP 210246Z 2103/2206 31005KT P6SM SCT100 SCT300
     FM210900 34012KT P6SM FEW250
     FM220300 01010KT P6SM SCT150=

USA.gov is the U.S. government's official web portal to all federal, state and local government web resources and services.